FW4226 Weather Reports


time (UTC)temp
C
wind
direction
speed
KPH
gust
KPH
rain 1hr
cm
rain 24hr
cm
rain mn
cm
humidity
%
barometer
mb
20260507090003 11 63 1.6 6.4 0.00 0.00 0.00 76 1016.7
20260507084958 10 143 0.0 1.6 0.00 0.00 0.00 79 1016.7
20260507084459 10 143 0.0 4.8 0.00 0.00 0.00 80 1016.8
20260507084000 10 143 1.6 4.8 0.00 0.00 0.00 80 1016.7
20260507082959 11 166 1.6 4.8 0.00 0.00 0.00 81 1016.8
20260507082459 10 58 0.0 3.2 0.00 0.00 0.00 83 1016.6
20260507081959 10 107 0.0 0.0 0.00 0.00 0.00 87 1016.8
20260507081459 9 90 0.0 0.0 0.00 0.00 0.00 88 1016.7
20260507080958 9 90 0.0 0.0 0.00 0.00 0.00 89 1016.7
20260507080459 9 90 0.0 0.0 0.00 0.00 0.00 89 1016.7
20260507080004 9 90 0.0 0.0 0.00 0.00 0.00 89 1016.7
20260507075459 9 21 0.0 0.0 0.00 0.00 0.00 92 1016.6
20260507074959 8 31 0.0 0.0 0.00 0.00 0.00 94 1016.6
20260507074500 8 31 0.0 0.0 0.00 0.00 0.00 93 1016.6
20260507073959 7 31 0.0 0.0 0.00 0.00 0.00 93 1016.7
20260507073458 7 31 0.0 0.0 0.00 0.00 0.00 93 1016.5
20260507072958 7 31 0.0 0.0 0.00 0.00 0.00 93 1016.6
20260507072459 7 31 0.0 0.0 0.00 0.00 0.00 94 1016.6
20260507071000 7 31 0.0 0.0 0.00 0.00 0.00 95 1016.6
20260507070458 7 31 0.0 0.0 0.00 0.00 0.00 95 1016.6
20260507065001 6 22 0.0 0.0 0.00 0.00 0.00 95 1016.7
20260507064459 6 22 0.0 0.0 0.00 0.00 0.00 95 1016.6
20260507062959 5 22 0.0 0.0 0.00 0.00 0.00 95 1016.6
20260507062459 5 22 0.0 0.0 0.00 0.00 0.00 95 1016.6
20260507062001 5 22 0.0 0.0 0.00 0.00 0.00 95 1016.5
20260507061459 5 22 0.0 0.0 0.00 0.00 0.00 95 1016.5
20260507061000 4 22 0.0 0.0 0.00 0.00 0.00 95 1016.4
20260507060459 4 22 0.0 0.0 0.00 0.00 0.00 95 1016.3
20260507060001 3 22 0.0 0.0 0.00 0.00 0.00 95 1016.3
20260507055457 3 22 0.0 0.0 0.00 0.00 0.00 95 1016.4
20260507054958 3 22 0.0 0.0 0.00 0.00 0.00 95 1016.4
20260507054457 3 22 0.0 0.0 0.00 0.00 0.00 95 1016.4
20260507053958 3 22 0.0 0.0 0.00 0.00 0.00 95 1016.3
20260507053458 3 22 0.0 0.0 0.00 0.00 0.00 95 1016.3
20260507053003 2 22 0.0 0.0 0.00 0.00 0.00 95 1016.3
20260507052458 2 22 0.0 0.0 0.00 0.00 0.00 95 1016.2
20260507051959 2 22 0.0 0.0 0.00 0.00 0.00 95 1016.3
20260507051500 2 22 0.0 0.0 0.00 0.00 0.00 95 1016.2
20260507050959 2 22 0.0 0.0 0.00 0.00 0.00 95 1016.3
20260507050500 2 22 0.0 0.0 0.00 0.00 0.00 95 1016.2
20260507050006 1 22 0.0 0.0 0.00 0.00 0.00 95 1016.2
20260507045000 1 22 0.0 0.0 0.00 0.00 0.00 95 1016.0
20260507043957 0 22 0.0 0.0 0.00 0.00 0.00 94 1016.0
20260507043458 0 22 0.0 0.0 0.00 0.00 0.00 94 1016.0
20260507042958 0 22 0.0 0.0 0.00 0.00 0.00 93 1015.9
20260507042457 0 22 0.0 0.0 0.00 0.00 0.00 93 1015.9
20260507041958 0 22 0.0 0.0 0.00 0.00 0.00 93 1016.0
20260507041458 0 22 0.0 0.0 0.00 0.00 0.00 93 1016.0
20260507040957 0 22 0.0 0.0 0.00 0.00 0.00 93 1016.0
20260507040458 0 22 0.0 0.0 0.00 0.00 0.00 93 1015.9
20260507034958 1 22 0.0 0.0 0.00 0.00 0.00 93 1016.0
20260507034458 1 22 0.0 0.0 0.00 0.00 0.00 93 1016.1
20260507033959 1 22 0.0 0.0 0.00 0.00 0.00 93 1016.1
20260507033458 1 22 0.0 0.0 0.00 0.00 0.00 93 1016.0
20260507032458 1 22 0.0 0.0 0.00 0.00 0.00 92 1016.1
20260507031958 1 22 0.0 0.0 0.00 0.00 0.00 92 1016.1
20260507031458 1 22 0.0 0.0 0.00 0.00 0.00 92 1016.2
20260507030959 1 22 0.0 0.0 0.00 0.00 0.00 92 1016.2
20260507030457 2 22 0.0 0.0 0.00 0.00 0.00 92 1016.1
20260507025458 2 22 0.0 0.0 0.00 0.00 0.00 92 1016.1
20260507024957 2 22 0.0 0.0 0.00 0.00 0.00 92 1016.0
20260507022958 2 22 0.0 0.0 0.00 0.00 0.00 93 1016.1
20260507022458 2 22 0.0 0.0 0.00 0.00 0.00 93 1016.1
20260507021958 2 22 0.0 0.0 0.00 0.00 0.00 93 1016.1
20260507021500 2 22 0.0 0.0 0.00 0.00 0.00 93 1016.0
20260507020958 2 22 0.0 0.0 0.00 0.00 0.00 93 1016.0
20260507020500 1 22 0.0 0.0 0.00 0.00 0.00 93 1016.0
20260507020002 1 22 0.0 1.6 0.00 0.00 0.00 93 1016.0
20260507014458 1 22 0.0 0.0 0.00 0.00 0.00 92 1015.9
20260507013958 1 22 0.0 0.0 0.00 0.00 0.00 92 1015.9
20260507013458 1 22 0.0 0.0 0.00 0.00 0.00 92 1015.9
20260507013001 1 22 0.0 0.0 0.00 0.00 0.00 92 1015.8
20260507012458 1 22 0.0 0.0 0.00 0.00 0.00 92 1015.9
20260507011958 1 22 0.0 0.0 0.00 0.00 0.00 92 1015.8
20260507010958 1 22 0.0 0.0 0.00 0.00 0.00 92 1015.9
20260507010458 1 22 0.0 0.0 0.00 0.00 0.00 92 1015.7
20260507010002 2 22 0.0 0.0 0.00 0.00 0.00 92 1015.7
20260507005457 2 22 0.0 0.0 0.00 0.00 0.00 92 1015.8
20260507004957 2 22 0.0 0.0 0.00 0.00 0.00 92 1015.7
20260507004457 2 22 0.0 0.0 0.00 0.00 0.00 92 1015.8
20260507003957 2 22 0.0 0.0 0.00 0.00 0.00 92 1015.9
20260507003457 2 22 0.0 0.0 0.00 0.00 0.00 92 1015.8
20260507002958 2 22 0.0 0.0 0.00 0.00 0.00 92 1015.9
20260507002458 2 22 0.0 0.0 0.00 0.00 0.00 92 1015.9
20260507001958 2 22 0.0 0.0 0.00 0.00 0.00 92 1016.0
20260507001457 2 22 0.0 0.0 0.00 0.00 0.00 92 1016.0
20260507000458 2 22 0.0 0.0 0.00 0.00 0.00 92 1016.0
20260506235500 3 22 0.0 0.0 0.00 0.00 0.00 92 1015.9
20260506235002 3 22 0.0 0.0 0.00 0.00 0.00 92 1015.8
20260506234459 3 22 0.0 0.0 0.00 0.00 0.00 92 1015.8
20260506233959 3 22 0.0 1.6 0.00 0.00 0.00 91 1015.7
20260506233500 3 22 0.0 1.6 0.00 0.00 0.00 92 1015.7
20260506233003 3 22 0.0 0.0 0.00 0.00 0.00 91 1015.8
20260506232459 3 22 0.0 0.0 0.00 0.00 0.00 91 1015.8
20260506231503 4 22 0.0 0.0 0.00 0.00 0.00 91 1015.9
20260506230501 4 22 0.0 0.0 0.00 0.00 0.00 91 1015.8
20260506230005 4 22 0.0 0.0 0.00 0.00 0.00 91 1015.8
20260506225501 4 22 0.0 0.0 0.00 0.00 0.00 91 1015.9
20260506224002 5 22 0.0 0.0 0.00 0.00 0.00 90 1015.8
20260506223502 5 22 0.0 0.0 0.00 0.00 0.00 90 1015.8
20260506223002 5 22 0.0 0.0 0.00 0.00 0.00 90 1015.7
20260506222501 5 21 0.0 0.0 0.00 0.00 0.00 90 1015.8
20260506221501 5 21 0.0 0.0 0.00 0.00 0.00 89 1015.7
20260506221002 5 21 0.0 0.0 0.00 0.00 0.00 89 1015.7
20260506220502 5 20 0.0 0.0 0.00 0.00 0.00 89 1015.7
20260506220006 6 21 0.0 0.0 0.00 0.00 0.00 89 1015.7
20260506215503 6 20 0.0 0.0 0.00 0.00 0.00 88 1015.7
20260506215002 6 20 0.0 0.0 0.00 0.00 0.00 88 1015.6
20260506214502 6 21 0.0 0.0 0.00 0.00 0.00 87 1015.5
20260506213501 6 21 0.0 3.2 0.00 0.00 0.00 87 1015.5
20260506212501 7 344 0.0 1.6 0.00 0.00 0.00 87 1015.7
20260506212000 7 344 0.0 1.6 0.00 0.00 0.00 86 1015.7
20260506211501 7 338 0.0 0.0 0.00 0.00 0.00 86 1015.8
20260506211002 7 338 0.0 0.0 0.00 0.00 0.00 86 1015.7
20260506210005 7 332 0.0 1.6 0.00 0.00 0.00 85 1015.7
20260506205501 7 333 0.0 1.6 0.00 0.00 0.00 84 1015.6
20260506205000 7 333 0.0 1.6 0.00 0.00 0.00 84 1015.6
20260506204500 8 299 0.0 0.0 0.00 0.00 0.00 83 1015.5
20260506204000 8 299 0.0 1.6 0.00 0.00 0.00 83 1015.5
20260506203501 8 299 0.0 1.6 0.00 0.00 0.00 83 1015.4
20260506203001 8 335 0.0 3.2 0.00 0.00 0.00 82 1015.4
20260506202500 8 335 0.0 3.2 0.00 0.00 0.00 82 1015.3
20260506202001 8 339 0.0 1.6 0.00 0.00 0.00 81 1015.3
20260506201501 8 268 0.0 4.8 0.00 0.00 0.00 81 1015.4
20260506201002 8 341 1.6 4.8 0.00 0.00 0.00 80 1015.3
20260506200500 8 15 0.0 6.4 0.00 0.00 0.00 80 1015.3
20260506195500 9 355 0.0 4.8 0.00 0.00 0.00 79 1015.0
20260506195002 9 328 0.0 4.8 0.00 0.00 0.00 78 1015.0
20260506194002 9 94 0.0 6.4 0.00 0.00 0.00 77 1014.9
20260506193500 10 294 0.0 4.8 0.00 0.00 0.00 77 1014.9
20260506193003 10 41 1.6 4.8 0.00 0.00 0.00 77 1014.8
20260506192001 10 3 0.0 1.6 0.00 0.00 0.00 76 1014.9
20260506191001 10 350 0.0 3.2 0.00 0.00 0.00 75 1014.8
20260506190501 10 321 0.0 1.6 0.00 0.00 0.00 74 1014.7
20260506190005 10 358 0.0 1.6 0.00 0.00 0.00 74 1014.8
20260506185500 10 354 0.0 0.0 0.00 0.00 0.00 73 1014.8
20260506184500 10 355 0.0 0.0 0.00 0.00 0.00 71 1014.6
20260506183500 10 41 0.0 0.0 0.00 0.00 0.00 70 1014.6
20260506183002 10 41 0.0 0.0 0.00 0.00 0.00 69 1014.6
20260506182002 10 33 0.0 1.6 0.00 0.00 0.00 68 1014.5
20260506181500 10 314 0.0 3.2 0.00 0.00 0.00 68 1014.4
20260506181001 10 9 0.0 0.0 0.00 0.00 0.00 67 1014.3
20260506180500 11 360 0.0 6.4 0.00 0.00 0.00 68 1014.3
20260506180006 11 11 0.0 6.4 0.00 0.00 0.00 65 1014.2
20260506175500 11 298 0.0 0.0 0.00 0.00 0.00 67 1014.1
20260506175001 11 6 0.0 3.2 0.00 0.00 0.00 66 1013.9
20260506173501 11 30 0.0 6.4 0.00 0.00 0.00 68 1014.0
20260506173001 11 18 0.0 6.4 0.00 0.00 0.00 67 1013.9
20260506172001 11 349 0.0 3.2 0.00 0.00 0.00 65 1014.0
20260506171500 12 14 1.6 9.7 0.00 0.00 0.00 64 1013.9
20260506171002 12 101 1.6 9.7 0.00 0.00 0.00 64 1013.8
20260506170502 12 19 1.6 8.0 0.00 0.00 0.00 63 1013.8
20260506170004 12 151 1.6 4.8 0.00 0.00 0.00 64 1013.8
20260506165001 12 352 1.6 6.4 0.00 0.00 0.00 64 1013.9
20260506164500 12 44 1.6 8.0 0.00 0.00 0.00 64 1013.9
20260506164001 12 44 3.2 12.9 0.00 0.00 0.00 63 1013.9
20260506163501 12 353 3.2 12.9 0.00 0.00 0.00 63 1013.9
20260506163001 12 313 3.2 8.0 0.00 0.00 0.00 64 1013.9
20260506162501 12 319 3.2 12.9 0.00 0.00 0.00 64 1013.9
20260506162001 12 43 3.2 12.9 0.00 0.00 0.00 62 1014.0
20260506161501 13 33 3.2 6.4 0.00 0.00 0.00 63 1013.9
20260506161001 12 343 3.2 9.7 0.00 0.00 0.00 63 1013.9
20260506160502 12 308 3.2 9.7 0.00 0.00 0.00 64 1013.8
20260506160005 12 96 3.2 9.7 0.00 0.00 0.00 65 1013.9
20260506155500 12 344 3.2 9.7 0.00 0.00 0.00 66 1013.9
20260506155000 12 269 3.2 9.7 0.00 0.00 0.00 65 1014.0
20260506154501 12 320 3.2 6.4 0.00 0.00 0.00 65 1014.1
20260506154001 12 10 3.2 8.0 0.00 0.00 0.00 64 1014.0
20260506153001 12 349 3.2 9.7 0.00 0.00 0.00 65 1014.1
20260506152501 12 15 3.2 8.0 0.00 0.00 0.00 66 1014.1
20260506152000 12 15 3.2 11.3 0.00 0.00 0.00 69 1014.0
20260506151500 12 76 1.6 6.4 0.00 0.00 0.00 68 1014.1
20260506151000 12 36 1.6 6.4 0.00 0.00 0.00 69 1014.1
20260506150005 12 145 1.6 8.0 0.00 0.00 0.00 69 1014.1
20260506145459 12 321 3.2 8.0 0.00 0.00 0.00 69 1014.0
20260506144459 12 349 3.2 8.0 0.00 0.00 0.00 69 1014.0
20260506144000 12 346 3.2 8.0 0.00 0.00 0.00 69 1014.1
20260506143459 12 26 1.6 6.4 0.00 0.00 0.00 68 1014.0
20260506143000 12 19 1.6 8.0 0.00 0.00 0.00 69 1014.0
20260506142459 12 345 3.2 9.7 0.00 0.00 0.00 67 1014.1
20260506141459 12 12 3.2 14.5 0.00 0.00 0.00 68 1014.1
20260506141000 12 306 3.2 14.5 0.00 0.00 0.00 67 1014.2
20260506140501 12 24 4.8 12.9 0.00 0.00 0.00 67 1014.0
20260506140004 12 332 4.8 12.9 0.00 0.00 0.00 66 1014.2
20260506135459 12 12 3.2 12.9 0.00 0.00 0.00 67 1014.2
20260506134959 12 324 3.2 12.9 0.00 0.00 0.00 67 1014.2
20260506134000 12 355 3.2 12.9 0.00 0.00 0.00 67 1014.2
20260506133459 12 83 3.2 9.7 0.00 0.00 0.00 68 1014.3
20260506132959 12 255 3.2 11.3 0.00 0.00 0.00 67 1014.2
20260506131959 12 344 3.2 12.9 0.00 0.00 0.00 67 1014.2
20260506131459 12 24 3.2 9.7 0.00 0.00 0.00 65 1014.3
20260506130959 12 308 3.2 9.7 0.00 0.00 0.00 65 1014.3
20260506130459 12 64 3.2 9.7 0.00 0.00 0.00 67 1014.4
20260506130004 11 354 3.2 9.7 0.00 0.00 0.00 68 1014.4
20260506125500 11 51 3.2 9.7 0.00 0.00 0.00 68 1014.4
20260506125002 11 299 3.2 9.7 0.00 0.00 0.00 68 1014.5
20260506124000 11 299 3.2 11.3 0.00 0.00 0.00 70 1014.3
20260506123501 11 25 3.2 11.3 0.00 0.00 0.00 68 1014.4
20260506123000 11 358 3.2 9.7 0.00 0.00 0.00 70 1014.2
20260506122500 11 30 3.2 14.5 0.00 0.00 0.00 71 1014.4
20260506121501 11 299 3.2 12.9 0.00 0.00 0.00 69 1014.4
20260506120004 12 357 3.2 8.0 0.00 0.00 0.00 68 1014.4
20260506115458 12 4 4.8 16.1 0.00 0.00 0.00 67 1014.4
20260506114959 12 41 4.8 16.1 0.00 0.00 0.00 65 1014.3
20260506114459 12 338 4.8 16.1 0.00 0.00 0.00 66 1014.3
20260506114000 12 26 4.8 12.9 0.00 0.00 0.00 67 1014.4
20260506113459 12 318 4.8 16.1 0.00 0.00 0.00 66 1014.3
20260506112959 12 129 6.4 16.1 0.00 0.00 0.00 68 1014.4
20260506112459 11 21 4.8 12.9 0.00 0.00 0.00 66 1014.4
20260506111959 11 328 3.2 11.3 0.00 0.00 0.00 66 1014.3
20260506111459 12 220 3.2 12.9 0.00 0.00 0.00 64 1014.2
20260506111002 12 357 4.8 12.9 0.00 0.00 0.00 64 1014.3
20260506110459 12 84 4.8 12.9 0.00 0.00 0.00 65 1014.3
20260506110004 11 317 1.6 6.4 0.00 0.00 0.00 66 1014.2
20260506105000 11 44 3.2 9.7 0.00 0.00 0.00 66 1014.2
20260506104459 11 320 3.2 8.0 0.00 0.00 0.00 67 1014.2
20260506103959 11 296 3.2 8.0 0.00 0.00 0.00 67 1014.4
20260506103458 11 29 3.2 11.3 0.00 0.00 0.00 66 1014.4
20260506102959 12 51 3.2 11.3 0.00 0.00 0.00 66 1014.2
20260506102500 12 12 3.2 8.0 0.00 0.00 0.00 67 1014.2
20260506101959 12 308 3.2 8.0 0.00 0.00 0.00 67 1014.2
20260506101459 11 323 3.2 11.3 0.00 0.00 0.00 70 1014.3
20260506100959 11 29 3.2 11.3 0.00 0.00 0.00 69 1014.2
20260506100459 11 34 3.2 12.9 0.00 0.00 0.00 68 1014.3
20260506100005 11 334 3.2 12.9 0.00 0.00 0.00 69 1014.3
20260506095458 11 299 3.2 8.0 0.00 0.00 0.00 70 1014.3
20260506094458 12 38 3.2 11.3 0.00 0.00 0.00 68 1014.2
20260506093959 12 13 4.8 12.9 0.00 0.00 0.00 67 1014.2
20260506093459 11 4 3.2 12.9 0.00 0.00 0.00 65 1014.2
20260506093000 11 330 3.2 11.3 0.00 0.00 0.00 69 1014.2
20260506092500 11 308 3.2 11.3 0.00 0.00 0.00 69 1014.2
20260506091959 11 41 3.2 11.3 0.00 0.00 0.00 70 1014.2
20260506091459 11 330 4.8 14.5 0.00 0.00 0.00 72 1014.3
20260506090959 11 45 4.8 16.1 0.00 0.00 0.00 72 1014.1